Location: Atbuku
(36.4936°N, 30.4362°E)
Time: 17:24:47
(UTC+00:00)

OAO 1 - Visible Passes

Search period start: 07 March 2026 00:00
Search period end: 17 March 2026 00:00
Orbit: 771 x 781 km, 35.0° (Epoch: 7 March)

Date Brightness Start Highest point End Pass type
(mag) Time Alt. Az. Time Alt. Az. Time Alt. Az.
7 Mar 4.8 02:18:27 51° S 02:19:02 54° SSE 02:24:24 10° E visible
8 Mar 5.6 01:42:54 39° ESE 01:42:54 39° ESE 01:46:44 10° E visible
8 Mar 4.6 03:23:13 16° W 03:27:35 78° S 03:33:05 10° E visible
9 Mar 6.7 01:07:19 20° E 01:07:19 20° E 01:09:04 10° E visible
9 Mar 4.5 02:47:38 36° WSW 02:49:57 76° S 02:55:27 10° E visible
10 Mar 4.4 02:12:02 72° SSW 02:12:19 74° S 02:17:48 10° E visible
11 Mar 5.5 01:36:26 43° E 01:36:26 43° E 01:40:11 10° E visible
11 Mar 4.6 03:16:45 17° W 03:20:57 72° S 03:26:26 10° ESE visible
12 Mar 6.7 01:00:50 20° E 01:00:50 20° E 01:02:32 10° E visible
12 Mar 4.5 02:41:09 38° W 02:43:19 75° S 02:48:48 10° ESE visible
13 Mar 4.4 02:05:35 76° SSW 02:05:41 76° S 02:11:11 10° E visible
13 Mar 5.1 03:46:33 10° W 03:51:48 46° SSW 03:57:01 10° SE visible
14 Mar 5.6 01:30:03 40° ESE 01:30:03 40° ESE 01:33:33 10° E visible
14 Mar 4.9 03:10:22 18° W 03:14:12 50° SSW 03:19:30 10° SE visible
15 Mar 6.8 00:54:34 18° E 00:54:34 18° E 00:55:55 10° E visible
15 Mar 4.7 02:34:54 39° WSW 02:36:36 54° SSW 02:41:57 10° ESE visible
16 Mar 4.7 01:59:29 56° S 01:59:29 56° S 02:04:23 10° ESE visible
16 Mar 5.8 03:40:26 10° W 03:44:48 24° SSW 03:49:10 10° SSE visible
